CW8164 Weather Reports


Display with metric or nautical units.
time (UTC)temp
F
wind
direction
speed
MPH
gust
MPH
rain 1hr
in
rain 24hr
in
rain mn
in
humidity
%
barometer
mb
20260906223903 62 118 0.0 3.0 0.00 0.14 0.14 85 1017.2
20260906223403 63 122 1.0 5.0 0.00 0.14 0.14 82 1017.1
20260906222403 63 250 0.0 5.0 0.00 0.14 0.14 83 1017.2
20260906221903 63 217 2.0 5.0 0.00 0.14 0.14 83 1017.1
20260906221404 62 186 1.0 3.0 0.00 0.14 0.14 85 1017.1
20260906220903 62 129 1.0 3.0 0.00 0.14 0.14 86 1017.1
20260906220403 62 103 0.0 3.0 0.00 0.14 0.14 88 1017.1
20260906215903 61 199 1.0 3.0 0.00 0.14 0.14 87 1017.1
20260906215403 61 181 1.0 3.0 0.00 0.14 0.14 88 1017.0
20260906214903 61 206 1.0 3.0 0.00 0.14 0.14 87 1017.1
20260906214403 61 84 1.0 3.0 0.00 0.14 0.14 87 1017.1
20260906213903 60 186 0.0 2.0 0.00 0.14 0.14 89 1017.1
20260906213403 60 221 0.0 2.0 0.00 0.14 0.14 90 1017.1
20260906212903 60 247 1.0 2.0 0.00 0.14 0.14 90 1017.1
20260906212403 60 219 1.0 2.0 0.00 0.14 0.14 90 1017.0
20260906211903 60 166 0.0 2.0 0.00 0.14 0.14 91 1016.9
20260906211403 59 183 1.0 2.0 0.00 0.14 0.14 90 1017.0
20260906210403 59 208 0.0 0.0 0.00 0.14 0.14 93 1016.9
20260906205903 59 112 0.0 0.0 0.00 0.14 0.14 92 1016.9
20260906205403 59 201 0.0 0.0 0.00 0.14 0.14 92 1016.9
20260906204904 59 231 0.0 0.0 0.00 0.14 0.14 91 1016.9
20260906204403 59 263 0.0 0.0 0.00 0.14 0.14 91 1017.0
20260906203903 59 236 0.0 2.0 0.00 0.14 0.14 92 1016.9
20260906202403 59 165 0.0 0.0 0.00 0.14 0.14 91 1016.8
20260906201904 59 115 0.0 0.0 0.00 0.14 0.14 91 1016.8
20260906200903 59 213 0.0 2.0 0.00 0.14 0.14 92 1016.7
20260906200403 58 240 0.0 2.0 0.00 0.14 0.14 91 1016.8
20260906195903 58 251 0.0 2.0 0.00 0.14 0.14 92 1016.8
20260906194903 58 123 0.0 2.0 0.00 0.14 0.14 92 1016.7
20260906194404 58 188 0.0 2.0 0.00 0.14 0.14 92 1016.6
20260906193903 58 194 0.0 2.0 0.00 0.14 0.14 92 1016.6
20260906193403 58 210 0.0 2.0 0.00 0.14 0.14 92 1016.6
20260906192904 58 229 0.0 2.0 0.00 0.14 0.14 92 1016.6
20260906191903 58 108 0.0 0.0 0.01 0.14 0.14 92 1016.6
20260906190903 58 205 0.0 0.0 0.01 0.14 0.14 92 1016.6
20260906190403 58 275 0.0 0.0 0.01 0.14 0.14 92 1016.6
20260906185903 58 273 0.0 0.0 0.02 0.14 0.14 91 1016.7
20260906185403 58 272 0.0 0.0 0.02 0.14 0.14 92 1016.6
20260906184903 58 275 0.0 0.0 0.02 0.14 0.14 92 1016.7
20260906184404 58 272 0.0 0.0 0.03 0.14 0.14 94 1016.6
20260906183903 58 289 0.0 0.0 0.03 0.14 0.14 94 1016.7
20260906183404 58 281 0.0 2.0 0.04 0.14 0.14 94 1016.7
20260906182403 58 200 0.0 0.0 0.05 0.14 0.14 93 1016.7
20260906181903 58 119 0.0 0.0 0.04 0.13 0.13 93 1016.6
20260906181403 57 125 0.0 0.0 0.05 0.13 0.13 94 1016.6
20260906180903 57 124 0.0 0.0 0.06 0.13 0.13 93 1016.5
20260906180404 57 124 0.0 0.0 0.06 0.13 0.13 93 1016.6
20260906175903 57 80 0.0 0.0 0.05 0.12 0.12 93 1016.6
20260906175403 57 82 0.0 0.0 0.06 0.12 0.12 93 1016.5
20260906174903 57 81 0.0 0.0 0.06 0.12 0.12 93 1016.5
20260906174404 57 78 0.0 0.0 0.06 0.11 0.11 93 1016.5
20260906173904 57 78 0.0 0.0 0.07 0.11 0.11 93 1016.5
20260906173403 57 87 0.0 0.0 0.06 0.10 0.10 93 1016.4
20260906172403 56 80 0.0 0.0 0.06 0.09 0.09 93 1016.5
20260906171903 56 82 0.0 2.0 0.06 0.09 0.09 93 1016.5
20260906171404 56 91 0.0 2.0 0.05 0.08 0.08 93 1016.5
20260906170903 56 102 0.0 0.0 0.04 0.07 0.07 93 1016.5
20260906165903 56 107 0.0 0.0 0.04 0.07 0.07 93 1016.5
20260906165403 56 107 0.0 0.0 0.03 0.06 0.06 93 1016.5
20260906164403 56 107 0.0 0.0 0.03 0.05 0.05 92 1016.6
20260906163403 56 114 0.0 0.0 0.02 0.04 0.04 92 1016.5
20260906162903 56 115 0.0 2.0 0.02 0.04 0.04 92 1016.5
20260906162404 56 106 0.0 2.0 0.02 0.03 0.03 92 1016.6
20260906161904 56 92 1.0 1.0 0.02 0.03 0.03 92 1016.5
20260906161403 56 251 0.0 2.0 0.02 0.03 0.03 92 1016.4
20260906160903 56 250 0.0 2.0 0.02 0.03 0.03 92 1016.3
20260906155903 56 117 0.0 2.0 0.02 0.03 0.03 93 1016.2
20260906155403 56 78 0.0 2.0 0.02 0.03 0.03 93 1016.2
20260906154903 56 82 0.0 1.0 0.01 0.02 0.02 93 1016.2
20260906154403 56 101 0.0 0.0 0.02 0.02 0.02 93 1016.2
20260906153903 56 86 0.0 0.0 0.02 0.02 0.02 94 1016.2
20260906153403 56 88 0.0 0.0 0.02 0.02 0.02 94 1016.3
20260906152403 56 123 0.0 2.0 0.01 0.01 0.01 94 1016.2
20260906151903 56 144 0.0 2.0 0.01 0.01 0.01 94 1016.2
20260906151403 56 125 0.0 0.0 0.01 0.01 0.01 94 1016.2
20260906150903 56 126 0.0 2.0 0.01 0.01 0.01 94 1016.1
20260906145903 56 89 0.0 2.0 0.01 0.01 0.01 95 1016.0
20260906145403 56 148 0.0 2.0 0.01 0.01 0.01 95 1015.9
20260906144904 56 75 0.0 0.0 0.01 0.01 0.01 95 1015.7
20260906144403 56 85 0.0 0.0 0.00 0.00 0.00 95 1015.7
20260906143903 55 85 0.0 0.0 0.00 0.00 0.00 95 1015.7
20260906143403 55 85 0.0 0.0 0.00 0.00 0.00 95 1015.7
20260906142903 55 54 0.0 0.0 0.00 0.00 0.00 95 1015.6
20260906142404 55 54 0.0 0.0 0.00 0.00 0.00 95 1015.5
20260906141903 55 54 0.0 0.0 0.00 0.00 0.00 95 1015.5
20260906141403 55 54 0.0 0.0 0.00 0.00 0.00 95 1015.5
20260906140403 55 36 0.0 0.0 0.00 0.00 0.00 95 1015.3
20260906135903 55 70 0.0 0.0 0.00 0.00 0.00 94 1015.3
20260906135403 55 70 0.0 0.0 0.00 0.00 0.00 94 1015.2
20260906134903 55 70 0.0 0.0 0.00 0.00 0.00 94 1015.1
20260906134403 55 70 0.0 0.0 0.00 0.00 0.00 94 1015.1
20260906133904 55 70 0.0 0.0 0.00 0.00 0.00 94 1015.1
20260906133404 55 70 0.0 0.0 0.00 0.00 0.00 94 1015.1
20260906132903 55 70 0.0 2.0 0.00 0.00 0.00 94 1015.1
20260906131403 55 23 0.0 0.0 0.00 0.00 0.00 94 1015.2
20260906130903 55 23 0.0 0.0 0.00 0.00 0.00 94 1015.2
20260906130404 55 13 0.0 0.0 0.00 0.00 0.00 94 1015.1
20260906125403 55 67 0.0 3.0 0.00 0.00 0.00 94 1015.3
20260906124903 54 72 2.0 3.0 0.00 0.00 0.00 94 1015.2
20260906124403 54 71 0.0 0.0 0.00 0.00 0.00 94 1014.9
20260906123903 54 133 0.0 0.0 0.00 0.00 0.00 94 1015.1
20260906123403 55 75 0.0 0.0 0.00 0.00 0.00 94 1014.9
20260906122403 54 103 0.0 0.0 0.00 0.00 0.00 94 1015.2
20260906121903 54 103 0.0 0.0 0.00 0.00 0.00 94 1015.2
20260906120904 54 9 0.0 0.0 0.00 0.00 0.00 94 1015.1
20260906115903 54 34 0.0 0.0 0.00 0.00 0.00 94 1015.2
20260906114904 54 34 0.0 0.0 0.00 0.00 0.00 94 1015.2
20260906113903 55 62 0.0 0.0 0.00 0.00 0.00 94 1015.2
20260906113404 55 351 0.0 0.0 0.00 0.00 0.00 94 1015.3
20260906112904 55 351 0.0 0.0 0.00 0.00 0.00 93 1015.3
20260906112403 55 351 0.0 0.0 0.00 0.00 0.00 93 1015.4
20260906111903 55 351 0.0 0.0 0.00 0.00 0.00 93 1015.4
20260906111404 54 351 0.0 0.0 0.00 0.00 0.00 93 1015.3
20260906110904 54 348 0.0 0.0 0.00 0.00 0.00 93 1015.3
20260906105404 54 329 0.0 0.0 0.00 0.00 0.00 93 1015.2
20260906104903 55 329 0.0 0.0 0.00 0.00 0.00 93 1015.2
20260906104404 55 329 0.0 0.0 0.00 0.00 0.00 93 1015.2
20260906103903 55 329 0.0 0.0 0.00 0.00 0.00 93 1015.1
20260906102903 55 329 0.0 0.0 0.00 0.00 0.00 93 1015.2
20260906102404 54 329 0.0 0.0 0.00 0.00 0.00 93 1015.2
20260906101903 54 329 0.0 0.0 0.00 0.00 0.00 93 1015.1
20260906100903 54 329 0.0 0.0 0.00 0.00 0.00 92 1015.2
20260906100403 54 329 0.0 0.0 0.00 0.00 0.00 92 1015.2
20260906095903 54 329 0.0 0.0 0.00 0.00 0.00 93 1015.2
20260906095403 54 329 0.0 0.0 0.00 0.00 0.00 92 1015.2
20260906094903 54 329 0.0 0.0 0.00 0.00 0.00 92 1015.2
20260906094403 54 329 0.0 0.0 0.00 0.00 0.00 92 1015.2
20260906092904 54 111 0.0 0.0 0.00 0.00 0.00 92 1015.1
20260906092404 54 111 0.0 0.0 0.00 0.00 0.00 92 1015.1
20260906091904 54 111 0.0 0.0 0.00 0.00 0.00 92 1015.1
20260906091404 54 111 0.0 0.0 0.00 0.00 0.00 92 1015.2
20260906090904 54 111 0.0 0.0 0.00 0.00 0.00 92 1015.2
20260906090403 54 111 0.0 0.0 0.00 0.00 0.00 92 1015.2
20260906085904 54 111 0.0 0.0 0.00 0.00 0.00 92 1015.1
20260906085403 54 111 0.0 0.0 0.00 0.00 0.00 92 1015.1
20260906084904 54 111 0.0 0.0 0.00 0.00 0.00 92 1015.1
20260906083904 54 111 0.0 0.0 0.00 0.00 0.00 92 1015.0
20260906083403 54 111 0.0 0.0 0.00 0.00 0.00 92 1015.0
20260906082403 54 111 0.0 0.0 0.00 0.00 0.00 92 1014.9
20260906081903 54 111 0.0 0.0 0.00 0.00 0.00 92 1014.9
20260906081404 54 111 0.0 0.0 0.00 0.00 0.00 92 1014.9
20260906080403 55 111 0.0 0.0 0.00 0.00 0.00 92 1015.0
20260906075903 55 111 0.0 0.0 0.00 0.00 0.00 92 1015.0
20260906075404 55 111 0.0 0.0 0.00 0.00 0.00 91 1015.0
20260906074903 55 111 0.0 0.0 0.00 0.00 0.00 91 1015.0
20260906074403 55 111 0.0 0.0 0.00 0.00 0.00 91 1015.0
20260906073903 55 111 0.0 0.0 0.00 0.00 0.00 91 1015.0
20260906072904 55 111 0.0 0.0 0.00 0.00 0.00 91 1015.0
20260906071404 55 111 0.0 0.0 0.00 0.00 0.00 91 1015.0
20260906070903 55 111 0.0 0.0 0.00 0.00 0.00 92 1015.0
20260906070403 55 111 0.0 0.0 0.00 0.00 0.00 92 1015.0
20260906065903 55 111 0.0 0.0 0.00 0.00 0.00 92 1015.0
20260906065403 55 111 0.0 0.0 0.00 0.00 0.00 92 1015.0
20260906064903 54 111 0.0 0.0 0.00 0.00 0.00 92 1015.1
20260906064403 54 111 0.0 0.0 0.00 0.00 0.00 92 1015.1
20260906063904 54 111 0.0 0.0 0.00 0.00 0.00 92 1015.1
20260906063404 54 111 0.0 0.0 0.00 0.00 0.00 92 1015.1
20260906062903 54 111 0.0 0.0 0.00 0.00 0.00 92 1015.2
20260906062404 54 111 0.0 0.0 0.00 0.00 0.00 92 1015.2
20260906061903 54 111 0.0 0.0 0.00 0.00 0.00 92 1015.1
20260906061403 54 111 0.0 0.0 0.00 0.00 0.00 92 1015.0
20260906060404 54 117 0.0 0.0 0.00 0.00 0.00 91 1015.0
20260906055904 54 117 0.0 0.0 0.00 0.00 0.00 92 1015.0
20260906055403 54 117 0.0 0.0 0.00 0.00 0.00 92 1015.0
20260906053903 54 117 0.0 0.0 0.00 0.00 0.00 91 1015.1
20260906053403 54 117 0.0 0.0 0.00 0.00 0.00 91 1015.2
20260906052403 54 117 0.0 0.0 0.00 0.00 0.00 90 1015.2
20260906050904 55 117 0.0 0.0 0.00 0.00 0.00 89 1015.4
20260906045903 55 117 0.0 0.0 0.00 0.00 0.00 89 1015.4
20260906045403 55 117 0.0 0.0 0.00 0.00 0.00 90 1015.4
20260906044404 55 94 0.0 0.0 0.00 0.00 0.00 89 1015.4
20260906043903 55 94 0.0 0.0 0.00 0.00 0.00 89 1015.5
20260906043403 55 94 0.0 0.0 0.00 0.00 0.00 89 1015.5
20260906042903 55 94 0.0 0.0 0.00 0.00 0.00 88 1015.5
20260906042403 55 94 0.0 0.0 0.00 0.00 0.00 88 1015.5
20260906041903 56 94 0.0 0.0 0.00 0.00 0.00 87 1015.5
20260906040904 56 94 0.0 0.0 0.00 0.00 0.00 86 1015.5
20260906040404 56 94 0.0 0.0 0.00 0.00 0.00 87 1015.4
20260906035904 57 94 0.0 0.0 0.00 0.00 0.00 86 1015.3
20260906035403 57 94 0.0 0.0 0.00 0.00 0.00 86 1015.3
20260906034404 57 110 0.0 0.0 0.00 0.00 0.00 85 1015.4
20260906033403 58 110 0.0 0.0 0.00 0.00 0.00 84 1015.1
20260906032903 58 110 0.0 0.0 0.00 0.00 0.00 83 1015.0
20260906032403 58 110 0.0 0.0 0.00 0.00 0.00 83 1015.0
20260906031903 59 110 0.0 0.0 0.00 0.00 0.00 83 1014.9
20260906031404 59 113 0.0 0.0 0.00 0.00 0.00 82 1014.8
20260906030903 60 117 0.0 0.0 0.00 0.00 0.00 82 1014.9
20260906030403 60 116 0.0 0.0 0.00 0.00 0.00 80 1014.8
20260906025903 60 121 0.0 0.0 0.00 0.00 0.00 80 1014.9
20260906025404 60 4 0.0 0.0 0.00 0.00 0.00 79 1014.9
20260906024904 61 346 0.0 0.0 0.00 0.00 0.00 79 1014.9
20260906023904 62 204 0.0 0.0 0.00 0.00 0.00 77 1014.8
20260906023404 62 204 0.0 0.0 0.00 0.00 0.00 77 1014.8
20260906022904 63 204 0.0 0.0 0.00 0.00 0.00 76 1014.9
20260906022403 63 204 0.0 0.0 0.00 0.00 0.00 73 1015.0
20260906021904 63 204 0.0 0.0 0.00 0.00 0.00 73 1015.0
20260906021404 64 204 0.0 0.0 0.00 0.00 0.00 73 1015.0
20260906020904 64 204 0.0 0.0 0.00 0.00 0.00 72 1015.0
20260906020404 64 204 0.0 0.0 0.00 0.00 0.00 71 1015.0
20260906015904 64 184 0.0 0.0 0.00 0.00 0.00 71 1015.0
20260906015404 64 141 0.0 0.0 0.00 0.00 0.00 72 1015.0
20260906014403 64 221 0.0 0.0 0.00 0.00 0.00 72 1015.0
20260906013903 64 248 0.0 0.0 0.00 0.00 0.00 71 1015.0
20260906013403 64 221 0.0 0.0 0.00 0.00 0.00 74 1015.0
20260906012903 65 221 0.0 0.0 0.00 0.00 0.00 72 1015.0
20260906012404 65 221 0.0 0.0 0.00 0.00 0.00 71 1015.0
20260906011904 65 223 0.0 0.0 0.00 0.00 0.00 71 1015.0
20260906011404 66 229 0.0 0.0 0.00 0.00 0.00 69 1015.1
20260906010903 66 229 0.0 0.0 0.00 0.00 0.00 67 1015.1
20260906005903 68 239 0.0 0.0 0.00 0.00 0.00 64 1015.1
20260906005404 69 245 0.0 0.0 0.00 0.00 0.00 62 1015.1
20260906004904 69 246 0.0 0.0 0.00 0.00 0.00 58 1015.0
20260906004404 70 256 0.0 0.0 0.00 0.00 0.00 58 1015.0
20260906003403 71 254 0.0 2.0 0.00 0.00 0.00 54 1015.1
20260906002903 71 205 0.0 2.0 0.00 0.00 0.00 51 1015.1
20260906002403 72 37 0.0 0.0 0.00 0.00 0.00 52 1015.1
20260906001903 71 299 0.0 0.0 0.00 0.00 0.00 54 1015.2
20260906001404 71 300 0.0 0.0 0.00 0.00 0.00 55 1015.1
20260906000404 71 27 0.0 0.0 0.00 0.00 0.00 53 1015.2
20260905235904 71 20 0.0 0.0 0.00 0.00 0.00 54 1015.1
20260905234903 71 272 0.0 1.0 0.00 0.00 0.00 53 1015.1
20260905234404 71 345 0.0 1.0 0.00 0.00 0.00 53 1015.2
20260905233903 71 271 0.0 3.0 0.00 0.00 0.00 53 1015.2
20260905233403 71 277 0.0 3.0 0.00 0.00 0.00 51 1015.2
20260905232403 71 144 0.0 2.0 0.00 0.00 0.00 53 1015.3
20260905231903 71 315 0.0 5.0 0.00 0.00 0.00 52 1015.3
20260905231403 71 243 1.0 5.0 0.00 0.00 0.00 52 1015.3
20260905230903 71 252 1.0 3.0 0.00 0.00 0.00 51 1015.4
20260905230403 70 114 0.0 0.0 0.00 0.00 0.00 52 1015.4
20260905225404 70 202 0.0 3.0 0.00 0.00 0.00 53 1015.4
20260905224904 70 172 1.0 3.0 0.00 0.00 0.00 52 1015.4